Regional Weather Roundup
Issued by NWS

Home | Current Version | Previous Version | Graphics & Text | Print | Product List | Glossary On
Versions: 1 2 3 4 5 6 7 8 9 10 11 12 13 14 15 16 17 18 19 20 21 22 23 24 25 26 27 28 29 30 31 32 33 34 35 36 37 38 39 40 41 42 43 44 45 46 47 48 49 50
000
ASUS43 KIND 102259
RWRIN

WEATHER ROUNDUP FOR INDIANA
NATIONAL WEATHER SERVICE INDIANAPOLIS IN
600 PM EST WED FEB 10 2016

NOTE: "FAIR" INDICATES FEW OR NO CLOUDS BELOW 12,000 FEET WITH NO
SIGNIFICANT WEATHER AND/OR OBSTRUCTIONS TO VISIBILITY.

* - STATION DOES NOT REPORT WEATHER SUCH AS PRECIPITATION OR FOG.

+ - STATION NOT QUALITY CONTROLLED BY THE NATIONAL WEATHER SERVICE.
    USE DATA WITH CAUTION...ESPECIALLY DEWPOINT AND RELATIVE
    HUMIDITY OBSERVATIONS.

INZ001>003-010>013-019-020-110000-
NORTHWEST INDIANA

CITY           SKY/WX    TMP DP  RH WIND       PRES   REMARKS
GARY /AIRPORT/ MOCLDY    19   1  45 W12       30.06R WCI   7

$$

LMZ046-743>745-110000-
SOUTHERN LAKE MICHIGAN

STATION/POSITION TIME  TEMP    WIND        PRES    WAVE
                       AIR SEA DIR/SP/G            HT
                 (UTC) (F)     (DEG/KT/KT) (MB)    (FT)
BURNS HARBOR     2200   18     290/  9/ 14 1017.6R
MICHIGAN CITY    2200   17     270/ 15/ 17   N/A

$$

INZ004-005-014>016-021>024-110000-
NORTH CENTRAL INDIANA

CITY           SKY/WX    TMP DP  RH WIND       PRES   REMARKS
ELKHART        FLURRIES  16  10  79 W14G23    30.01R WCI   1
GOSHEN         CLOUDY    14   6  70 W14       30.00R WCI  -1
SOUTH BEND     LGT SNOW  14   8  77 W12       30.03R WCI   0

$$

INZ006>009-017-018-025>027-110000-
NORTHEAST INDIANA

CITY           SKY/WX    TMP DP  RH WIND       PRES   REMARKS
ANGOLA *+      CLOUDY    18  12  79 NW10      29.94R WCI   6
FORT WAYNE     FLURRIES  19   9  65 W22       30.00R WCI   2

$$

INZ028-029-035-036-043>045-051>053-110000-
WEST CENTRAL INDIANA

CITY           SKY/WX    TMP DP  RH WIND       PRES   REMARKS
GREENCASTLE +  CLOUDY    18   1  49 W7        30.09R WCI   8
LAFAYETTE      MOCLDY    15   6  67 W9        30.09R WCI   3
TERRE HAUTE    CLOUDY    19   7  59 W8        30.11R WCI   9

$$

INZ030>032-037>040-046>048-054>057-064-065-110000-
CENTRAL INDIANA

CITY           SKY/WX    TMP DP  RH WIND       PRES   REMARKS
COLUMBUS       PTCLDY    18   7  62 W16       30.10R WCI   3
GREENWOOD *+   CLOUDY    18   9  68 W12       30.08R WCI   5
INDIANAPOLIS   MOCLDY    16   5  62 W13       30.07R WCI   2
-EAGLE CREEK   CLOUDY    16   6  65 W7G18     30.07R WCI   6
KOKOMO *+      CLOUDY    16   3  57 W14       30.05R WCI   1
MT COMFORT *+  MOCLDY    14   5  67 W13       30.07R WCI   0
SHELBYVILLE    CLEAR     17   4  56 W12       30.07R WCI   4

$$

INZ033-034-041-042-049-050-058-059-110000-
EAST CENTRAL INDIANA

CITY           SKY/WX    TMP DP  RH WIND       PRES   REMARKS
MUNCIE         FLURRIES  15   6  67 W13       30.04R WCI   1

$$

INZ060-061-067>069-081>083-085>088-110000-
SOUTHWEST INDIANA

CITY           SKY/WX    TMP DP  RH WIND       PRES   REMARKS
EVANSVILLE     CLOUDY    25  13  60 W13       30.16R WCI  14
HUNTINGBURG *+ CLOUDY    21   9  58 W10       30.13S WCI  10

$$

INZ062-063-066-070>080-084-089>092-110000-
SOUTH CENTRAL AND SOUTHEAST INDIANA

CITY           SKY/WX    TMP DP  RH WIND       PRES   REMARKS
BLOOMINGTON    CLOUDY    19   6  57 W6        30.08R WCI  11
MADISON *+     MOCLDY    21   5  49 SW7G17    30.10R WCI  13
SEYMOUR +      PTCLDY    21   7  53 W10       30.10R WCI  10

$$





USA.gov is the U.S. government's official web portal to all federal, state and local government web resources and services.